Savannah, GA

1:40 AM EST on February 21, 2017 (GMT -0500)
Hunter Army Air Field

Weather History for KSVN - December, 2012

Change the Weather History Date:

Tuesday, December 11, 2012

  Actual Average Record
Temperature  
Mean Temperature 65 °F -  
Max Temperature 70 °F 61 °F 77 °F (2007)
Min Temperature 59 °F 42 °F 30 °F (2014)
Growing Degree Days 15 (Base 50)    
Moisture  
Dew Point 63 °F    
Average Humidity 91    
Maximum Humidity 100    
Minimum Humidity 78    
Precipitation  
Precipitation 0.01 in - - ()
Sea Level Pressure  
Sea Level Pressure 29.94 in    
Wind  
Wind Speed 4 mph (West)    
Max Wind Speed 9 mph    
Max Gust Speed -    
Visibility 10 miles    
Events Rain    
Averages and records for this station are not official NWS values.
T = Trace of Precipitation, MM = Missing Value Source: NWS Daily Summary

Daily Weather History Graph

Daily Weather History Graph

Search for Another Location

Airport or City:

Trip Planner

Search our weather history database for the weather conditions in past years. The results will help you decide how hot, cold, wet, or windy it might be!

Date:

Astronomy

Dec. 11, 2012 Rise Set
Actual Time 7:15 AM EST 5:20 PM EST
Civil Twilight 6:48 AM EST 5:47 PM EST
Nautical Twilight 6:17 AM EST 6:18 PM EST
Astronomical Twilight 5:48 AM EST 6:48 PM EST
Moon 5:11 AM EST (12/11) 3:56 PM EST (12/11)
Length of Visible Light 10h 59m
Length of Day
10h 05m
Waning Crescent, 4% of the Moon is Illuminated
Dec 11
Waning Crescent
Dec 13
New
Dec 20
First Quarter
Dec 28
Full
Jan 4
Last Quarter

Hourly Weather History & Observations

Time (EST) Temp. Dew Point Humidity Pressure Visibility Wind Dir Wind Speed Gust Speed Precip Events Conditions
12:55 AM 66.9 °F 64.9 °F 93% 29.82 in 10.0 mi SSW 5.8 mph - N/A   Partly Cloudy
1:03 AM 66.2 °F 64.4 °F 94% 29.82 in 10.0 mi SW 5.8 mph - N/A   Mostly Cloudy
1:38 AM 68.0 °F 64.4 °F 88% 29.81 in 10.0 mi SSW 6.9 mph - N/A   Scattered Clouds
1:39 AM 68.0 °F 64.4 °F 88% 29.81 in 10.0 mi SSW 6.9 mph - N/A   Mostly Cloudy
1:55 AM 67.3 °F 65.5 °F 94% 29.81 in 10.0 mi SSW 5.8 mph - N/A   Mostly Cloudy
2:16 AM 68.0 °F 66.2 °F 94% 29.81 in 10.0 mi SSW 5.8 mph - N/A   Overcast
2:55 AM 67.3 °F 65.7 °F 95% 29.81 in 10.0 mi SW 3.5 mph - N/A   Overcast
3:02 AM 68.0 °F 66.2 °F 94% 29.82 in 10.0 mi SSW 4.6 mph - N/A   Overcast
3:55 AM 67.5 °F 65.7 °F 94% 29.83 in 10.0 mi SSW 5.8 mph - N/A   Overcast
4:34 AM 68.0 °F 66.2 °F 94% 29.83 in 10.0 mi South 3.5 mph - N/A   Mostly Cloudy
4:40 AM 68.0 °F 66.2 °F 94% 29.84 in 10.0 mi South 3.5 mph - N/A   Mostly Cloudy
4:55 AM 67.1 °F 65.7 °F 95% 29.85 in 10.0 mi South 3.5 mph - N/A   Overcast
5:14 AM 68.0 °F 66.2 °F 94% 29.85 in 10.0 mi Calm Calm - N/A   Overcast
5:23 AM 68.0 °F 66.2 °F 94% 29.86 in 10.0 mi South 3.5 mph - N/A   Overcast
5:31 AM 66.2 °F 66.2 °F 100% 29.86 in 10.0 mi SSE 4.6 mph - N/A   Overcast
5:38 AM 66.2 °F 66.2 °F 100% 29.86 in 10.0 mi South 4.6 mph - N/A   Overcast
5:55 AM 66.9 °F 65.5 °F 95% 29.86 in 10.0 mi South 4.6 mph - N/A   Overcast
6:12 AM 66.2 °F 64.4 °F 94% 29.86 in 10.0 mi South 3.5 mph - N/A   Mostly Cloudy
6:41 AM 66.2 °F 66.2 °F 100% 29.89 in 10.0 mi SSW 4.6 mph - N/A   Overcast
6:53 AM 66.2 °F 66.2 °F 100% 29.89 in 10.0 mi WSW 3.5 mph - N/A   Overcast
6:55 AM 66.7 °F 65.7 °F 96% 29.89 in 10.0 mi WSW 4.6 mph - N/A   Overcast
6:56 AM 66.2 °F 66.2 °F 100% 29.89 in 10.0 mi WSW 3.5 mph - N/A   Overcast
6:58 AM 66.2 °F 66.2 °F 100% 29.89 in 10.0 mi SSW 3.5 mph - N/A   Overcast
7:14 AM 66.2 °F 66.2 °F 100% 29.90 in 10.0 mi SSW 4.6 mph - N/A   Overcast
7:19 AM 66.2 °F 66.2 °F 100% 29.90 in 10.0 mi SSW 4.6 mph - N/A   Mostly Cloudy
7:37 AM 66.2 °F 64.4 °F 94% 29.89 in 10.0 mi SSW 3.5 mph - N/A   Mostly Cloudy
7:55 AM 66.6 °F 65.5 °F 96% 29.91 in 10.0 mi Calm Calm - N/A   Mostly Cloudy
8:00 AM 66.2 °F 66.2 °F 100% 29.91 in 10.0 mi Calm Calm - N/A   Mostly Cloudy
8:05 AM 66.2 °F 66.2 °F 100% 29.92 in 10.0 mi WSW 4.6 mph - N/A   Mostly Cloudy
8:07 AM 66.2 °F 66.2 °F 100% 29.92 in 10.0 mi WSW 4.6 mph - N/A   Mostly Cloudy
8:13 AM 66.2 °F 66.2 °F 100% 29.92 in 10.0 mi WSW 3.5 mph - N/A   Overcast
8:15 AM 66.2 °F 66.2 °F 100% 29.92 in 10.0 mi Calm Calm - N/A   Overcast
8:18 AM 66.2 °F 66.2 °F 100% 29.92 in 10.0 mi Calm Calm - N/A   Overcast
8:26 AM 68.0 °F 66.2 °F 94% 29.92 in 10.0 mi Calm Calm - N/A   Mostly Cloudy
8:38 AM 68.0 °F 66.2 °F 94% 29.94 in 10.0 mi Calm Calm - N/A   Mostly Cloudy
8:41 AM 68.0 °F 66.2 °F 94% 29.94 in 10.0 mi Calm Calm - N/A   Overcast
8:55 AM 67.5 °F 65.8 °F 95% 29.94 in 10.0 mi Calm Calm - N/A   Overcast
9:11 AM 68.0 °F 64.4 °F 88% 29.95 in 10.0 mi Calm Calm - N/A   Overcast
9:13 AM 68.0 °F 64.4 °F 88% 29.95 in 10.0 mi West 3.5 mph - N/A   Overcast
9:29 AM 68.0 °F 64.4 °F 88% 29.95 in 10.0 mi West 4.6 mph - N/A   Overcast
9:30 AM 68.0 °F 64.4 °F 88% 29.95 in 10.0 mi West 4.6 mph - N/A   Overcast
9:33 AM 68.0 °F 64.4 °F 88% 29.95 in 10.0 mi West 5.8 mph - N/A   Overcast
9:36 AM 68.0 °F 64.4 °F 88% 29.95 in 10.0 mi WNW 4.6 mph - N/A   Overcast
9:41 AM 68.0 °F 64.4 °F 88% 29.95 in 10.0 mi NNW 4.6 mph - N/A   Overcast
9:55 AM 68.7 °F 63.1 °F 82% 29.95 in 10.0 mi Calm Calm - N/A   Overcast
10:45 AM 69.8 °F 64.4 °F 83% 29.97 in 10.0 mi South 3.5 mph - N/A   Overcast
10:50 AM 69.8 °F 64.4 °F 83% 29.97 in 10.0 mi SSW 3.5 mph - N/A   Overcast
10:55 AM 68.9 °F 64.8 °F 87% 29.96 in 10.0 mi Calm Calm - N/A   Overcast
11:21 AM 69.8 °F 64.4 °F 83% 29.96 in 10.0 mi Variable 3.5 mph - N/A   Overcast
11:48 AM 69.8 °F 64.4 °F 83% 29.96 in 10.0 mi Calm Calm - N/A   Mostly Cloudy
11:49 AM 69.8 °F 64.4 °F 83% 29.96 in 10.0 mi Calm Calm - N/A   Mostly Cloudy
11:55 AM 70.2 °F 63.1 °F 78% 29.96 in 10.0 mi South 4.6 mph - N/A   Mostly Cloudy
12:55 PM 70.5 °F 63.7 °F 79% 29.94 in 10.0 mi Calm Calm - N/A   Overcast
1:08 PM 69.8 °F 64.4 °F 83% 29.95 in 10.0 mi NW 5.8 mph - N/A   Mostly Cloudy
1:17 PM 69.8 °F 62.6 °F 78% 29.95 in 10.0 mi WNW 5.8 mph - N/A   Mostly Cloudy
1:55 PM 69.3 °F 62.6 °F 79% 29.95 in 10.0 mi WNW 6.9 mph - N/A   Overcast
2:24 PM 69.8 °F 62.6 °F 78% 29.94 in 10.0 mi NW 4.6 mph - N/A   Mostly Cloudy
2:27 PM 69.8 °F 62.6 °F 78% 29.94 in 10.0 mi NW 3.5 mph - N/A   Mostly Cloudy
2:30 PM 69.8 °F 62.6 °F 78% 29.94 in 10.0 mi NW 4.6 mph - N/A   Mostly Cloudy
2:44 PM 69.8 °F 62.6 °F 78% 29.95 in 10.0 mi NW 4.6 mph - N/A   Light Drizzle
2:55 PM 68.5 °F 63.0 °F 82% 29.96 in 10.0 mi WNW 6.9 mph - 0.00 in   Light Drizzle
2:59 PM 68.0 °F 62.6 °F 83% 29.96 in 10.0 mi WNW 8.1 mph - N/A   Light Drizzle
3:55 PM 64.4 °F 61.5 °F 90% 29.96 in 10.0 mi North 4.6 mph - 0.01 in Rain Light Rain
4:00 PM 64.4 °F 60.8 °F 88% 29.96 in 10.0 mi North 4.6 mph - N/A   Clear
4:35 PM 62.6 °F 60.8 °F 94% 29.99 in 10.0 mi WNW 8.1 mph - N/A   Mostly Cloudy
4:55 PM 62.6 °F 60.3 °F 92% 29.98 in 10.0 mi NNW 8.1 mph - 0.00 in   Mostly Cloudy
5:03 PM 62.6 °F 60.8 °F 94% 29.98 in 10.0 mi North 5.8 mph - N/A   Light Drizzle
5:37 PM 60.8 °F 59.0 °F 94% 29.99 in 10.0 mi NNW 4.6 mph - N/A   Light Drizzle
5:49 PM 60.8 °F 59.0 °F 94% 29.99 in 10.0 mi NNW 5.8 mph - N/A   Mostly Cloudy
5:55 PM 61.3 °F 58.3 °F 90% 29.99 in 10.0 mi NNW 6.9 mph - 0.00 in   Mostly Cloudy
6:23 PM 60.8 °F 57.2 °F 88% 29.99 in 10.0 mi North 3.5 mph - N/A   Overcast
6:24 PM 60.8 °F 57.2 °F 88% 29.99 in 10.0 mi North 3.5 mph - N/A   Mostly Cloudy
6:44 PM 60.8 °F 57.2 °F 88% 30.00 in 10.0 mi Calm Calm - N/A   Mostly Cloudy
6:55 PM 61.2 °F 58.3 °F 90% 30.01 in 10.0 mi NNW 3.5 mph - N/A   Overcast
7:19 PM 60.8 °F 59.0 °F 94% 30.01 in 10.0 mi Calm Calm - N/A   Mostly Cloudy
7:44 PM 60.8 °F 59.0 °F 94% 30.02 in 10.0 mi NW 4.6 mph - N/A   Mostly Cloudy
7:55 PM 61.2 °F 59.0 °F 93% 30.03 in 10.0 mi NW 3.5 mph - N/A   Overcast
8:55 PM 61.2 °F 58.5 °F 91% 30.04 in 10.0 mi NW 5.8 mph - N/A   Overcast
9:16 PM 60.8 °F 59.0 °F 94% 30.03 in 10.0 mi Calm Calm - N/A   Mostly Cloudy
9:18 PM 60.8 °F 59.0 °F 94% 30.04 in 10.0 mi Calm Calm - N/A   Overcast
9:26 PM 60.8 °F 59.0 °F 94% 30.03 in 10.0 mi Calm Calm - N/A   Mostly Cloudy
9:36 PM 60.8 °F 59.0 °F 94% 30.04 in 10.0 mi NNW 4.6 mph - N/A   Mostly Cloudy
9:55 PM 61.0 °F 58.6 °F 92% 30.05 in 10.0 mi NW 6.9 mph - N/A   Overcast
10:55 PM 60.4 °F 58.1 °F 92% 30.06 in 10.0 mi NW 6.9 mph - N/A   Overcast
11:10 PM 60.8 °F 59.0 °F 94% 30.06 in 10.0 mi NNW 5.8 mph - N/A   Overcast
11:31 PM 60.8 °F 59.0 °F 94% 30.06 in 10.0 mi North 4.6 mph - N/A   Overcast
11:37 PM 60.8 °F 57.2 °F 88% 30.07 in 10.0 mi North 4.6 mph - N/A   Overcast
11:55 PM 59.9 °F 57.6 °F 92% 30.07 in 10.0 mi NNW 9.2 mph - N/A   Overcast